Weather in Miedzyrzec Podlaski

Poland     51°58′48″N   22°47′43″E
temp.,
°C
wind,
m/s
gust,
m/s
humid.,
%
clouds,
%
prec.,
mm/h
press.,
hPa
HPBL,
m
18 may, tue
tue1823:00+12ne3368100 0.0 100323
02:00+11ne2280100 0.0 100213
05:00+10n229181 0.0 100211
08:00+15nnw237811 0.0 1003318
11:00+18nnw556698 1.0 10031194
14:00+18nnw5663100 2.4 10031424
17:00+16wnw7880100 2.3 1003672
20:00+13nw7129278 3.9 1005432
19 may, wed
wed1923:00+11wnw61296100 0.0 1006482
02:00+11wnw61097100 0.6 1007501
05:00+10wnw6996100 0.4 1008526
08:00+10wnw51094100 0.8 1009525
11:00+14nw686869 0.1 10101320
14:00+15nw5663100 0.1 10101292
17:00+15nw456961 0.2 10101003
20:00+11nw35895 0.6 101190
20 may, thu
thu2023:00+9nnw359434 0.0 101292
02:00+8n379618 0.0 1012159
05:00+7n489890 0.0 1013217
08:00+10n5784100 0.0 1014470
11:00+13nnw5768100 0.0 1014943
14:00+15nnw675998 0.0 10141556
17:00+16nnw5864100 0.0 10131680
20:00+12nnw51178100 0.1 1015412
21 may, fri
fri2123:00+9nnw41088100 0.0 1017221
02:00+7nnw3995100 0.0 1018222
05:00+6nnw3993100 0.0 1019235
08:00+10nw586995 0.0 1019630
11:00+14nw565814 0.0 10201394
14:00+15nw565199 0.0 10192083
17:00+14nnw345758 0.0 10191291
20:00+11e11734 0.0 101911
22 may, sat
sat2223:00+8sse338027 0.0 101940
02:00+8s3580100 0.0 101888
05:00+8sse387891 0.0 1017151
08:00+13sse6106926 0.0 1017472
11:00+15sse6962100 0.0 1016920
14:00+19s785092 0.0 10151420
17:00+19s4760100 0.0 10131608
20:00+15sse41075100 0.0 1013238